Starlink 5628

operational
NORAD ID: 55466 Int'l Des: 2023-015 Owner: SPXS Country: US Constellation: starlink
LEOCIRCULAR

关于 Starlink 5628

正在加载描述...

实时位置

正在加载3D地球...

即将过境

高度历史

Altitude vs Time

uPlot chart will show altitude changes over time

两行轨道根数

1 55466U 23015T 25303.30016178 -.00000412 00000-0 -15404-4 0 9993
2 55466 43.0064 314.1781 0001326 269.4890 90.5801 15.02537280151148
Epoch: Oct 30, 2025 • Age: 19 hours

当前状态

高度 558.8 km
速度 7.59 km/s
星下点 19.77°N, 104.51°W
发射日期 Feb 2, 2023
运行时间 2.7 years
类型 internet

技术详情

分类 Payload
质量 305.00 kg
干质量 290.00 kg
总质量 305.00 kg
长度 0.20 m
直径 2.80 m
跨度 9.00 m
形状 Box + pan
制造商 SPXS
平台类型 Starlink
阶段状态 In Orbit
所有者/国家 SPXS/US

大型星座

Loading constellations...